Torna al catalogo

IONOSFERA-M 03

AttivoScienzaSSO
NORAD 64876·PAYLOAD·🇷🇺 Russia

Lanciato Jul 25, 2025 da Vostochny Cosmodrome

Loading…

Prossimi Passaggi (prossime 24 ore)

TLE

AggiornatoSource: Space-Track

Epoca: Sep 14, 2026, 13:38 UTC

1 64876U 25155A   26257.56870154  .00000027  00000-0  32140-4 0  9990
2 64876  98.6137 217.2639 0001186  16.1272 343.9943 14.21499195 59107

Traccia IONOSFERA-M 03 in tempo reale con AllMySat

Download on the App Store